Regional Weather Roundup
Issued by NWS Little Rock, AR

Home | Current Version | Previous Version | Graphics & Text | Print | Product List | Glossary On
Versions: 1 2 3 4 5 6 7 8 9 10 11 12 13 14 15 16 17 18 19 20 21 22 23 24 25 26 27 28 29 30 31 32
000
ASUS44 KLZK 232305
RWRLZK

WEATHER ROUNDUP FOR ARKANSAS
NATIONAL WEATHER SERVICE LITTLE ROCK AR
600 PM CDT WED AUG 23 2017

NOTE: "FAIR" INDICATES FEW OR NO CLOUDS BELOW 12,000 FEET WITH NO
SIGNIFICANT WEATHER AND/OR OBSTRUCTIONS TO VISIBILITY.

ARZ001-003-010-029-240000-
NORTHWEST ARKANSAS

CITY           SKY/WX    TMP DP  RH WIND       PRES   REMARKS
FAYETTEVILLE   SUNNY     81  64  56 VRB6      30.02F
FORT SMITH     SUNNY     85  72  65 E7        29.96S HX  91
HARRISON       MOSUNNY   80  58  46 N5        30.04F
BENTONVILLE    SUNNY     81  59  47 E5        30.04S
ROGERS         SUNNY     79  59  50 E5        30.04S
HIGHFILL       SUNNY     80  63  55 E8        30.03F
SPRINGDALE     MOSUNNY   79  59  50 NE8       30.04F
$$

ARZ004-005-016-240000-
NORTH CENTRAL ARKANSAS

CITY           SKY/WX    TMP DP  RH WIND       PRES   REMARKS
FLIPPIN        SUNNY     81  57  44 CALM      30.00S
MTN HOME       MOSUNNY   80  59  48 VRB3      30.01F
$$

ARZ040-041-240000-
WEST CENTRAL ARKANSAS

CITY           SKY/WX    TMP DP  RH WIND       PRES   REMARKS
MENA           MOSUNNY   82  77  83 CALM      29.98S HX  91
MOUNT IDA      PTSUNNY   80  74  81 SE5       29.95F HX  85
$$

ARZ009-017-025-026-028-240000-
NORTHEAST ARKANSAS

CITY           SKY/WX    TMP DP  RH WIND       PRES   REMARKS
JONESBORO      SUNNY     81  61  50 N6        29.99F
NEWPORT        SUNNY     77  64  64 NE9       30.00S
WALNUT RIDGE   SUNNY     81  61  50 NE3       30.00S
BLYTHEVILLE    MOSUNNY   80  63  55 N9        29.99F
$$

ARZ022-023-033-042-044-240000-
CENTRAL ARKANSAS

CITY           SKY/WX    TMP DP  RH WIND       PRES   REMARKS
LITTLE ROCK    PTSUNNY   80  69  69 NE10      29.97S
N LITTLE ROCK    N/A     78  68  71 NE9       29.98S
JACKSONVILLE   CLOUDY    79  69  71 N9        29.97F
CONWAY           N/A     81  66  61 NE12      29.97S
SEARCY         CLOUDY    78  68  71 N7        30.00F
HOT SPRINGS    CLOUDY    81  72  74 NE10      29.96S HX  85
RUSSELLVILLE   MOSUNNY   79  67  66 E7        29.98F
CLINTON        FAIR      79  66  65 SE3       30.00S
$$

ARZ036-240000-
EAST ARKANSAS

CITY           SKY/WX    TMP DP  RH WIND       PRES   REMARKS
WEST MEMPHIS   CLOUDY    81  65  58 NE10      29.97S
$$

ARZ050-053-066-070-073-240000-
SOUTHWEST ARKANSAS

CITY           SKY/WX    TMP DP  RH WIND       PRES   REMARKS
ARKADELPHIA    CLOUDY    83  75  77 NE6       29.94S HX  90
CAMDEN         SUNNY     88  72  58 NE7       29.91S HX  94
TEXARKANA      SUNNY     85  72  65 NE7       29.92F HX  91
EL DORADO      SUNNY     89  74  60 N7        29.90F HX  98
DE QUEEN       CLOUDY    85  74  69 E6        29.92S HX  92
$$

ARZ056-057-069-240000-
SOUTHEAST ARKANSAS

CITY           SKY/WX    TMP DP  RH WIND       PRES   REMARKS
PINE BLUFF     CLOUDY    83  71  67 NE9       29.94F HX  87
MONTICELLO     PTSUNNY   81  72  74 N5        29.93F HX  85

$$






USA.gov is the U.S. government's official web portal to all federal, state and local government web resources and services.